Vorticity
nan nan nan nan nan nan nan nan nan nan nan nan nan nan nan nan nan nan nan nan nan nan nan nan nan nan nan nan nan nan nan nan nan nan nan nan nan nan nan nan nan nan nan
nan 6 9 9 8 7 8 15 18 11 7 6 6 10 14 10 10 9 13 10 8 8 6 7 8 7 7 9 8 5 5 11 7 4 7 7 7 12 11 8 8 8 nan
nan 7 9 8 7 9 10 9 16 16 13 8 2 3 8 10 13 11 13 12 8 8 8 5 7 7 7 8 8 8 5 7 8 6 4 9 9 7 11 11 9 9 nan
nan 8 7 9 7 10 9 11 11 18 19 11 9 5 2 4 7 7 8 11 11 12 9 7 8 7 6 9 9 7 6 7 7 4 6 10 10 8 8 10 10 9 nan
nan 7 8 9 9 10 11 11 13 21 21 11 7 6 5 7 11 14 11 7 9 9 8 10 8 6 8 10 9 8 7 6 8 7 4 5 7 9 11 10 7 8 nan
nan 10 8 10 12 9 10 10 15 23 22 10 8 9 7 6 9 9 8 10 9 8 10 10 8 8 9 9 9 9 9 7 7 8 7 6 6 8 7 10 12 7 nan
nan 9 8 10 10 9 11 11 11 25 25 12 9 9 11 11 10 6 7 7 6 9 11 9 8 9 10 9 8 9 9 8 9 8 7 8 7 9 9 9 9 8 nan
nan 7 8 9 10 9 9 10 9 24 22 12 11 9 9 9 11 11 10 8 9 10 10 8 10 8 7 10 8 8 10 9 9 9 8 9 10 9 8 9 7 6 nan
nan 5 10 9 10 9 11 11 11 23 22 13 11 10 9 8 9 13 10 11 10 10 9 8 8 11 10 9 7 8 10 9 9 10 10 8 10 9 7 10 9 7 nan
nan 8 9 10 9 9 11 11 13 21 22 14 11 11 9 10 9 10 13 10 7 10 10 9 11 11 11 10 8 8 10 8 8 11 12 7 9 10 7 7 6 7 nan
nan 9 9 10 10 10 10 10 11 13 21 18 12 9 9 9 10 6 12 11 9 9 10 10 10 9 9 8 8 8 10 9 9 9 9 12 8 7 8 7 8 6 nan
nan 8 10 9 10 9 10 11 11 12 12 18 19 10 11 9 11 7 9 10 10 10 10 10 9 8 8 9 8 9 9 9 9 10 14 12 10 11 6 7 9 7 nan
nan 9 9 10 9 9 10 11 11 12 13 15 19 16 11 11 9 12 10 11 9 10 12 12 11 11 11 11 10 10 10 10 15 18 17 13 10 7 9 10 8 7 nan
nan 10 8 9 10 10 9 9 11 12 12 13 14 12 16 22 13 13 11 10 9 9 8 9 11 12 13 11 12 11 11 14 15 20 18 14 10 8 8 11 9 7 nan
nan 10 10 9 9 10 11 11 10 11 12 12 9 11 12 14 20 18 11 10 10 11 12 10 8 9 9 10 13 15 17 14 10 10 12 20 24 19 14 17 18 10 nan
nan 9 9 10 9 10 11 10 10 11 13 11 10 9 12 12 12 15 15 11 10 10 10 10 10 11 6 10 24 22 12 12 12 9 7 8 13 14 14 14 16 26 nan
nan 10 10 11 9 10 11 10 11 11 12 11 13 13 11 6 10 16 14 11 11 10 9 10 10 10 8 12 17 19 14 11 12 12 11 10 8 8 5 2 4 8 nan
nan 10 10 9 10 11 11 11 11 10 10 10 11 13 11 10 10 10 12 12 11 11 10 10 11 9 8 12 13 12 12 10 12 13 13 12 11 12 13 7 5 5 nan
nan 9 9 10 9 10 11 11 11 10 10 8 9 12 13 13 12 9 8 10 10 10 10 10 11 12 9 11 14 11 8 9 9 10 12 15 14 18 13 8 6 9 nan
nan 8 10 11 10 10 11 11 9 10 8 10 11 11 10 10 11 14 11 9 11 10 9 9 8 11 11 10 16 15 10 8 7 8 7 11 18 15 15 15 8 5 nan
nan 10 10 10 10 11 11 10 9 8 10 11 10 10 11 12 8 10 12 12 11 10 10 9 9 6 10 11 15 19 19 12 10 10 8 7 15 15 16 15 17 15 nan
nan 11 11 8 9 11 12 9 10 10 11 11 11 10 11 11 10 10 10 10 9 8 10 9 8 7 6 6 12 15 18 18 13 10 13 14 9 10 10 15 15 10 nan
nan 10 11 9 9 10 12 10 10 11 11 10 10 10 11 11 11 10 10 11 9 10 10 9 9 9 8 1 -1 4 7 12 13 11 10 8 4 5 6 8 6 6 nan
nan 10 10 10 9 9 11 11 10 10 11 10 10 11 10 10 12 12 11 10 11 12 10 10 10 9 10 10 6 5 3 5 10 10 6 3 1 3 6 2 6 10 nan
nan 11 10 8 8 10 10 9 11 12 10 10 9 10 9 9 10 10 12 16 16 17 17 16 14 12 15 15 16 16 15 12 11 9 7 7 7 7 8 9 9 10 nan
nan nan nan nan nan nan nan nan nan nan nan nan nan nan nan nan nan nan nan nan nan nan nan nan nan nan nan nan nan nan nan nan nan nan nan nan nan nan nan nan nan nan nan
CAPE
0 0 0 0 0 0 0 0 13 1553 2045 2215 1775 1524 1354 1318 1217 893 718 583 348 203 208 115 15 12 18 1 0 6 7 2 11 4 1 1 1 1 1 1 0 0 0
0 0 0 0 0 0 0 0 0 885 2007 2026 1955 1684 1645 1360 1302 1029 757 714 477 327 301 193 87 13 1 2 18 20 12 7 23 5 0 0 2 1 1 1 0 0 0
0 0 0 0 0 0 0 0 0 266 1790 1980 1940 813 990 684 609 701 541 376 424 277 254 182 100 76 42 35 30 19 2 16 24 0 0 1 0 3 1 1 0 0 0
0 0 0 0 0 0 0 0 0 0 1703 1947 1848 1499 1535 1253 1072 794 517 218 178 260 212 152 115 56 113 131 37 7 0 0 1 1 0 0 0 0 2 1 1 0 0
0 0 0 0 0 0 0 0 0 5 1489 1900 1673 1346 1387 1221 876 776 1 185 148 58 155 131 68 143 111 81 28 4 1 0 2 2 0 0 0 0 0 0 1 0 0
0 0 0 0 0 0 0 0 0 336 1563 1760 1459 1058 1166 388 737 711 423 307 108 110 161 185 142 87 53 45 10 4 3 2 4 1 0 0 0 0 0 0 0 0 0
0 0 0 0 1 1 1 2 2 163 1550 1503 1298 904 768 308 492 578 466 265 250 200 177 118 60 39 19 35 4 4 2 5 5 1 0 0 0 0 0 0 0 0 0
0 0 0 0 2 3 2 3 3 2 1342 1206 1118 757 155 193 210 191 158 182 214 214 122 61 50 2 17 27 6 1 1 2 6 0 0 0 0 0 0 0 0 0 0
1 0 0 1 1 4 10 4 4 2 820 842 515 217 130 77 42 5 2 22 120 42 14 10 22 94 41 19 16 16 6 3 1 1 0 0 0 0 0 0 0 0 0
0 0 0 1 2 5 5 5 6 4 611 493 339 183 120 30 0 0 0 13 32 6 4 0 8 59 51 22 15 16 18 12 20 10 0 0 0 1 0 0 0 0 0
1 0 0 2 2 4 10 4 10 10 6 253 223 120 33 2 0 0 1 0 0 0 0 0 1 0 0 0 0 1 3 12 26 3 3 1 0 1 0 0 0 0 0
0 0 0 1 2 3 4 5 4 14 6 1 110 64 13 0 0 0 0 0 0 0 0 0 0 0 0 1 1 1 1 1 1 2 38 0 1 0 1 0 0 0 0
0 0 0 1 2 2 3 6 8 13 10 4 3 29 21 2 1 0 0 0 0 0 0 0 0 0 2 0 1 0 0 0 0 30 1 0 1 1 0 0 0 0 0
1 0 0 2 2 3 4 4 5 5 3 5 5 4 2 8 6 1 1 1 0 0 0 0 0 0 0 0 1 1 1 1 1 1 0 2 2 0 0 0 0 0 0
4 3 3 3 3 3 3 3 4 4 4 1 1 3 3 1 2 1 0 0 0 0 0 0 0 0 0 0 0 0 1 0 0 0 0 0 0 0 0 0 0 0 0
6 5 3 3 4 5 4 3 3 3 4 3 3 2 2 1 1 3 0 0 0 0 0 0 0 0 0 0 1 0 0 0 0 0 0 1 0 0 0 0 0 1 0
6 6 5 6 5 4 5 4 3 2 2 2 3 4 2 2 1 1 1 0 1 0 0 1 1 1 1 0 0 0 0 0 0 0 0 0 1 0 0 1 1 1 0
5 7 6 4 3 3 2 2 3 2 2 2 0 2 2 1 0 0 1 5 1 1 1 1 1 1 3 1 0 0 0 0 0 1 1 1 1 0 0 0 0 0 0
7 5 6 6 4 3 2 1 1 1 1 2 2 2 0 0 0 0 0 0 1 2 2 2 2 2 2 2 0 0 0 0 0 1 0 0 0 1 1 0 1 1 1
2 2 2 4 3 3 1 1 0 0 1 2 3 2 2 1 0 0 0 1 1 1 1 1 1 4 2 4 1 0 0 0 1 0 0 2 0 0 0 0 0 0 1
2 0 2 5 1 2 1 0 0 0 1 1 1 1 2 2 1 1 1 1 1 0 0 1 0 1 1 3 3 1 0 0 1 1 2 3 4 4 2 1 0 0 0
1 1 1 2 4 0 0 0 0 0 0 0 0 0 0 1 1 0 0 0 0 0 0 0 1 1 1 4 6 4 2 0 0 0 2 5 7 7 5 2 4 0 0
0 0 1 0 1 2 1 0 2 0 0 0 0 0 0 0 0 0 0 0 0 0 0 0 0 0 1 0 8 6 5 3 0 0 5 6 5 3 2 1 0 0 0
0 0 0 0 0 0 1 6 1 0 0 0 0 0 0 0 0 0 0 0 0 0 0 0 0 0 0 0 1 1 0 1 0 0 0 0 2 0 0 0 0 0 0
0 0 0 0 0 0 0 1 1 0 0 0 0 0 0 0 0 0 0 0 0 0 0 0 0 0 0 2 2 0 0 0 0 0 0 0 0 0 0 0 0 0 0
0 0 0 0 0 0 0 0 0 0 0 0 0 0 0 0 0 1 0 6 8 6 4 3 1 3 7 7 8 6 3 2 0 0 0 0 0 0 0 0 0 0 0